FW8434 Weather Reports


Display with metric or nautical units.
time (UTC)temp
F
wind
direction
speed
MPH
gust
MPH
rain 1hr
in
rain 24hr
in
rain mn
in
humidity
%
barometer
mb
20260506013030 61 0 0.0 2.0 0.00 0.00 0.00 80 1013.7
20260506011528 61 277 0.0 2.0 0.00 0.00 0.00 79 1013.7
20260506010031 61 273 0.0 1.0 0.00 0.00 0.00 79 1013.6
20260506004527 61 316 0.0 2.0 0.00 0.00 0.00 77 1013.6
20260506003028 61 0 0.0 2.0 0.00 0.00 0.00 79 1013.6
20260506001528 61 234 0.0 2.0 0.00 0.00 0.00 78 1013.6
20260506000043 62 0 0.0 1.0 0.00 0.00 0.00 78 1013.9
20260505234532 62 312 0.0 2.0 0.00 0.00 0.00 79 1014.0
20260505233028 62 0 0.0 4.0 0.00 0.00 0.00 79 1013.9
20260505231530 62 197 1.0 3.0 0.00 0.00 0.00 77 1014.1
20260505230041 62 256 1.0 4.0 0.00 0.00 0.00 77 1013.9
20260505224528 62 224 0.0 3.0 0.00 0.00 0.00 76 1014.2
20260505223034 62 215 0.0 2.0 0.00 0.00 0.00 77 1014.3
20260505221529 63 288 0.0 3.0 0.00 0.00 0.00 76 1014.4
20260505220029 63 233 0.0 2.0 0.00 0.00 0.00 77 1014.3
20260505214530 63 0 1.0 3.0 0.00 0.00 0.00 73 1014.3
20260505213030 67 248 1.0 5.0 0.00 0.00 0.00 68 1014.6
20260505211536 65 191 0.0 2.0 0.00 0.00 0.00 73 1014.5
20260505210029 63 288 1.0 4.0 0.00 0.00 0.00 77 1014.6
20260505204529 62 286 0.0 2.0 0.00 0.00 0.00 76 1014.7
20260505203030 61 0 0.0 2.0 0.00 0.00 0.00 79 1014.6
20260505201531 61 0 0.0 2.0 0.00 0.00 0.00 78 1014.9
20260505200028 60 0 0.0 1.0 0.00 0.00 0.00 79 1014.8
20260505194529 59 227 0.0 3.0 0.00 0.00 0.00 81 1014.7
20260505193027 59 283 0.0 3.0 0.00 0.00 0.00 82 1015.0
20260505191533 59 271 0.0 1.0 0.00 0.00 0.00 82 1014.9
20260505190031 57 0 0.0 2.0 0.00 0.00 0.00 84 1014.8
20260505184537 57 242 0.0 1.0 0.00 0.00 0.00 86 1014.9
20260505183029 58 272 0.0 1.0 0.00 0.00 0.00 85 1014.9
20260505181532 57 0 0.0 0.0 0.00 0.00 0.00 84 1014.9
20260505180029 57 0 0.0 1.0 0.00 0.00 0.00 86 1014.7
20260505174536 57 0 0.0 1.0 0.00 0.00 0.00 85 1014.8
20260505173030 57 0 0.0 0.0 0.00 0.00 0.00 89 1014.6
20260505171536 56 108 0.0 1.0 0.00 0.00 0.00 87 1014.6
20260505170028 56 259 0.0 1.0 0.00 0.00 0.00 89 1014.5
20260505164530 56 178 0.0 1.0 0.00 0.00 0.00 89 1014.5
20260505163030 56 0 0.0 0.0 0.00 0.00 0.00 91 1014.4
20260505161530 55 0 0.0 1.0 0.00 0.00 0.00 92 1014.4
20260505153037 53 139 0.0 1.0 0.00 0.00 0.00 93 1014.2
20260505151527 53 242 0.0 1.0 0.00 0.00 0.00 93 1014.2
20260505124530 53 0 0.0 1.0 0.00 0.00 0.00 91 1013.2
20260505123045 53 252 0.0 2.0 0.00 0.00 0.00 90 1013.1
20260505121528 53 0 0.0 0.0 0.00 0.00 0.00 90 1013.1
20260505120034 53 0 0.0 0.0 0.00 0.00 0.00 90 1013.1
20260505114530 53 0 0.0 1.0 0.00 0.00 0.00 89 1013.0
20260505113032 53 0 0.0 2.0 0.00 0.00 0.00 89 1013.0
20260505111534 53 266 0.0 2.0 0.00 0.00 0.00 89 1013.0
20260505101528 54 274 0.0 1.0 0.00 0.00 0.00 88 1012.7
20260505100032 54 0 0.0 0.0 0.00 0.00 0.00 88 1012.8
20260505094531 54 166 0.0 4.0 0.00 0.00 0.00 88 1012.5
20260505093030 55 0 0.0 4.0 0.00 0.00 0.00 87 1012.5
20260505091530 55 232 0.0 3.0 0.00 0.00 0.00 87 1012.3
20260505090027 55 191 0.0 2.0 0.00 0.00 0.00 87 1012.4
20260505084534 55 0 1.0 5.0 0.00 0.00 0.00 86 1012.2
20260505083028 55 0 0.0 2.0 0.00 0.00 0.00 86 1012.3
20260505081528 56 0 1.0 5.0 0.00 0.00 0.00 86 1012.1
20260505080029 56 252 1.0 4.0 0.00 0.00 0.00 86 1012.0
20260505074530 56 181 0.0 4.0 0.00 0.00 0.00 85 1011.9
20260505073029 57 0 0.0 3.0 0.00 0.00 0.00 84 1011.6
20260505071528 58 214 0.0 4.0 0.00 0.00 0.00 82 1011.4
20260505070031 59 108 0.0 5.0 0.00 0.00 0.00 81 1011.4
20260505064533 60 221 1.0 6.0 0.00 0.00 0.00 80 1011.1
20260505063029 61 267 2.0 8.0 0.00 0.00 0.00 80 1011.0
20260505061529 62 0 0.0 4.0 0.00 0.00 0.00 78 1010.8
20260505060030 62 257 0.0 3.0 0.00 0.00 0.00 78 1010.7
20260505054543 63 0 0.0 4.0 0.00 0.00 0.00 79 1010.6
20260505053027 63 229 3.0 6.0 0.00 0.00 0.00 79 1010.6
20260505051528 63 179 1.0 4.0 0.00 0.00 0.00 81 1010.6
20260505041530 64 0 0.0 0.0 0.00 0.00 0.00 81 1009.9
20260505040031 64 0 0.0 0.0 0.00 0.00 0.00 81 1009.7
20260505034535 64 170 0.0 1.0 0.00 0.00 0.00 79 1009.5
20260505033030 65 206 0.0 2.0 0.00 0.00 0.00 78 1009.4
20260505031529 66 0 0.0 5.0 0.00 0.00 0.00 75 1009.2
20260505030043 67 223 1.0 3.0 0.00 0.00 0.00 74 1009.1
20260505024530 67 261 1.0 4.0 0.00 0.00 0.00 73 1008.9
20260505023032 68 264 1.0 3.0 0.00 0.00 0.00 72 1008.8
20260505021531 70 238 1.0 5.0 0.00 0.00 0.00 69 1008.9
20260505020028 70 227 2.0 6.0 0.00 0.00 0.00 67 1008.8
20260505014536 71 207 2.0 6.0 0.00 0.00 0.00 66 1008.8